Lid_Strength_Index
11 10 10 10 10 10 11 11 15 13 12 10 9 8 8 7 7 7 6 6 6 5 5 4 5 6 7 7 7 6 6 8 9 9 8 7 8 8 7 8 8 8 8 9
12 10 10 11 10 10 10 10 11 10 11 8 8 8 7 6 6 6 6 5 5 5 5 4 5 6 7 8 7 7 8 9 8 9 8 8 8 8 8 8 8 8 9 8
15 11 11 15 11 10 10 9 10 12 10 8 9 8 8 7 7 6 6 5 5 5 5 5 6 7 8 9 8 7 8 8 8 8 8 8 8 8 9 9 8 8 8 7
15 14 19 11 8 8 9 9 9 9 9 8 8 8 7 7 7 6 5 5 5 5 5 6 7 8 8 8 8 8 9 8 8 7 8 8 8 8 8 8 9 9 8 7
16 16 13 11 9 9 10 10 8 9 9 8 8 7 7 6 5 5 5 5 5 5 6 7 7 7 7 6 6 6 7 7 7 7 7 6 7 8 8 9 8 7 7 8
16 17 18 12 8 6 7 13 7 7 8 7 7 11 9 6 5 5 5 5 4 5 5 6 6 5 5 5 6 7 5 5 6 6 7 8 8 9 8 7 7 7 8 10
16 17 14 9 7 6 14 13 7 7 7 7 9 8 7 5 6 5 5 5 5 5 6 6 5 4 6 6 6 6 6 5 5 6 7 7 7 7 8 8 10 12 12 12
15 17 18 7 8 11 9 7 6 7 7 7 6 6 5 5 5 5 5 5 5 6 6 6 5 5 6 7 6 6 6 6 7 7 6 7 8 10 9 10 12 13 14 14
13 13 8 7 7 6 6 6 7 7 6 6 7 7 5 5 6 6 6 6 6 6 6 6 6 6 7 7 7 7 7 8 9 9 9 9 10 11 12 12 14 15 15 15
11 9 9 8 6 5 5 6 5 6 6 5 6 6 7 7 7 7 7 7 7 7 7 7 7 7 7 8 8 8 10 10 11 12 12 13 12 12 14 16 16 15 16 17
11 9 8 7 6 6 5 5 5 5 5 6 6 7 7 7 7 7 7 7 7 7 7 8 8 9 9 9 9 11 12 12 13 13 14 15 15 15 16 17 16 17 18 17
12 8 8 7 6 6 6 6 5 5 6 6 6 6 7 8 7 7 8 7 7 8 10 10 10 10 10 10 11 13 14 14 15 16 16 16 16 16 15 16 15 15 16 17
9 6 6 6 5 5 6 6 5 5 5 6 6 6 7 8 7 9 8 8 10 11 12 14 15 15 14 13 14 15 16 15 15 15 15 16 16 17 18 16 15 15 16 16
5 5 7 6 7 5 5 5 5 5 6 6 6 7 7 8 8 8 10 12 13 14 15 15 16 16 15 15 15 15 15 16 16 17 17 17 17 17 17 17 18 17 16 16
6 5 6 5 5 6 6 6 7 7 7 7 7 8 8 11 12 13 13 14 15 16 16 16 16 16 16 17 16 16 16 17 17 18 18 17 17 17 16 17 17 17 16 17
6 6 6 6 6 7 7 7 7 8 8 10 13 14 15 16 16 17 16 16 18 19 19 18 18 17 16 17 18 18 18 18 17 17 17 17 17 17 17 18 18 18 18 18
8 8 8 8 8 10 11 11 11 12 14 15 16 16 17 17 18 18 18 18 18 18 18 18 18 17 17 17 17 18 19 19 18 18 18 18 18 18 18 18 19 19 19 21
10 10 10 9 11 12 13 14 15 15 16 17 17 17 18 18 18 19 18 18 19 20 19 19 19 19 19 18 18 19 19 19 19 19 19 19 20 19 19 19 19 19 20 19
11 12 12 13 13 14 15 16 16 16 17 17 17 18 18 18 18 19 20 20 21 22 21 20 20 20 20 19 19 19 19 19 19 19 19 20 20 19 20 21 21 21 21 21
14 14 14 15 15 15 17 16 17 18 17 18 18 18 20 20 20 21 21 22 21 21 20 20 20 21 20 20 19 19 19 20 20 20 20 21 22 22 22 21 21 22 23 23
16 16 16 17 17 17 17 17 18 19 18 18 19 20 21 20 20 21 21 22 20 19 19 20 20 20 21 20 19 19 20 20 21 21 21 23 23 23 23 24 24 24 24 23
17 17 18 18 18 18 18 18 18 19 19 19 19 19 20 21 21 21 20 21 20 19 20 21 21 22 22 21 19 20 20 21 21 21 22 23 24 25 25 25 25 24 24 25
17 17 18 18 19 18 18 18 18 19 19 19 20 20 19 19 19 21 21 19 19 21 21 22 23 23 23 21 21 21 22 23 23 22 22 22 22 23 24 24 23 23 25 23
17 17 18 17 17 18 19 18 18 19 19 19 19 18 19 20 20 19 20 21 22 22 22 23 23 23 23 22 22 23 25 26 25 27 26 28 29 25 22 24 23 23 24 27
17 17 17 17 18 18 18 17 18 18 19 19 19 19 19 19 20 20 20 20 20 22 23 23 23 23 23 26 27 28 29 24 24 23 23 25 27 29 28 25 24 23 24 24
18 19 19 19 19 19 19 18 19 19 19 20 20 20 19 19 19 20 20 20 20 21 21 23 22 24 26 27 29 29 28 26 24 24 27 28 29 28 27 24 24 25 28 30
19 19 19 20 20 20 19 20 21 20 19 20 21 20 20 20 20 20 21 21 22 23 24 24 24 24 25 26 26 27 27 27 27 26 30 31 31 30 26 27 30 31 29 28